GFSFLT2_850_temp_222.txt.gz
Temp
19 18 18 18 17 17 17 17 17 17 17 17 17 17 16 16 16 16 16 16 15 15 15 16 16 15 15 14 14 13 13 13
17 17 17 17 17 17 17 17 17 17 16 16 16 16 16 16 16 16 15 15 15 14 14 15 15 15 14 13 13 13 13 13
17 16 16 16 16 16 17 16 16 16 15 15 15 15 16 15 15 15 15 15 15 14 14 15 15 15 14 12 12 12 12 12
17 17 17 16 16 16 16 16 15 15 15 15 15 15 15 15 15 15 15 15 14 14 14 14 14 15 14 13 12 12 12 12
18 17 17 16 16 16 15 15 15 15 15 15 14 14 15 14 14 14 14 14 14 13 13 14 14 14 14 13 12 12 11 12
19 18 17 16 16 16 16 16 15 15 15 15 14 14 14 14 14 14 14 14 13 13 13 13 13 14 14 14 12 11 11 11
20 18 17 16 16 16 16 16 15 15 15 14 14 14 14 14 14 14 14 13 13 13 12 12 12 13 13 14 13 12 11 11
20 19 18 17 17 16 16 15 15 15 15 15 15 15 15 15 15 14 14 13 13 12 12 12 12 12 12 12 13 12 11 10
20 19 18 17 16 15 15 15 15 15 15 15 14 14 14 13 13 13 13 12 12 12 12 12 12 12 12 12 12 11 11 10
20 19 18 17 16 15 15 15 15 15 15 14 14 14 13 13 13 12 12 12 12 12 12 11 11 10 11 11 10 10 10 10
20 19 18 17 16 15 14 14 15 14 14 13 13 13 13 13 12 12 12 11 11 11 11 11 10 9 9 9 10 9 9 8
19 18 18 17 16 14 14 14 14 14 13 13 13 12 12 11 12 11 11 11 11 11 10 10 10 9 8 7 9 9 8 8
18 18 17 17 15 15 14 14 14 14 13 13 13 13 12 12 11 10 11 11 10 10 9 9 9 9 8 7 7 6 7 8
18 18 17 16 15 15 14 14 13 13 12 14 14 14 13 13 12 11 11 10 10 10 9 9 8 9 8 7 6 6 7 7
17 17 16 15 15 14 13 13 13 14 14 14 13 13 12 12 11 10 10 9 9 9 8 9 8 8 8 7 6 6 6 6
16 16 15 15 14 13 14 14 14 14 14 13 12 11 11 11 10 10 9 9 9 9 8 8 8 8 7 7 7 7 6 4
15 15 14 13 14 14 14 14 13 13 13 12 11 10 10 10 10 10 9 8 8 8 7 7 8 7 7 7 6 7 6 6
14 14 14 14 14 14 14 13 13 12 12 11 11 10 10 10 9 9 9 9 8 8 7 7 6 6 6 7 6 6 6 6
14 15 15 15 14 14 13 13 12 12 12 11 11 10 9 9 8 8 8 8 8 7 6 6 6 6 6 5 5 6 6 6
15 15 15 14 14 14 13 13 12 12 11 11 10 10 10 9 8 8 8 7 8 7 6 6 6 6 6 5 4 5 5 5

GFSFLT2_850_temp_228.txt.gz
Temp
18 17 17 16 16 16 16 16 16 16 16 16 16 16 16 16 16 16 16 16 16 16 16 16 16 16 15 15 15 14 14 14
18 17 17 16 16 16 16 16 16 16 16 16 16 16 15 15 15 16 16 16 15 15 15 15 16 16 15 15 14 14 13 13
18 17 17 16 16 16 16 16 16 16 16 15 15 14 15 15 15 15 15 15 15 15 15 15 15 15 15 15 14 12 12 13
18 17 17 16 15 16 15 15 15 15 15 16 14 13 13 13 15 15 15 15 14 14 15 15 15 13 13 14 12 12 12 12
18 17 17 17 16 15 14 14 14 14 14 15 13 14 14 15 13 14 13 14 14 14 14 14 13 13 13 12 11 11 11 11
16 18 17 17 16 16 15 14 14 14 15 15 13 14 13 13 13 13 13 13 13 14 12 14 14 14 13 12 11 11 11 11
16 16 18 17 16 16 16 15 16 14 14 14 13 13 13 13 13 13 13 13 13 13 13 12 12 13 13 13 11 11 11 11
19 19 18 18 17 17 16 16 15 14 13 13 14 13 13 13 13 13 12 12 12 13 12 11 11 12 12 12 11 10 10 10
20 19 19 18 17 16 15 15 14 15 14 15 14 14 14 14 14 14 13 13 13 12 12 12 11 11 11 10 12 12 10 10
17 19 19 18 17 16 16 15 15 15 14 14 14 14 14 14 13 13 13 13 13 12 12 12 12 11 11 11 11 10 10 10
17 19 19 18 17 16 16 15 15 15 15 14 14 14 14 14 14 13 13 13 12 12 12 11 11 11 11 10 10 10 10 10
17 18 18 18 17 16 15 15 15 15 14 14 14 14 14 14 13 13 13 13 12 11 11 11 11 10 10 10 10 9 9 8
17 15 16 18 17 16 15 15 15 15 15 14 14 14 14 13 12 11 13 13 12 10 11 10 10 10 9 9 9 9 9 8
16 15 15 18 17 16 16 15 15 15 14 14 14 13 14 14 14 14 13 12 12 11 10 10 10 9 9 9 8 7 8 8
16 16 14 17 17 16 15 15 15 14 14 13 14 15 14 14 14 14 13 13 12 11 10 9 9 9 8 8 7 7 7 7
16 15 14 15 16 16 16 15 15 14 13 13 13 14 14 14 13 12 12 11 11 11 10 10 8 8 8 8 8 7 7 6
15 13 14 14 15 15 15 15 14 14 13 15 14 14 13 13 12 11 10 10 10 10 10 9 9 7 7 7 7 7 7 6
14 14 14 14 14 14 15 14 14 14 15 14 14 13 13 12 11 10 10 10 9 9 9 9 8 7 7 7 7 6 6 6
15 14 14 14 14 14 13 14 14 15 14 13 12 13 12 11 11 10 10 10 9 9 8 8 8 8 6 7 6 6 6 6
15 14 14 14 14 13 13 13 14 13 13 12 12 12 11 11 11 10 10 10 9 8 8 8 8 7 6 5 5 5 5 6

GFSFLT2_850_temp_231.txt.gz
Temp
18 18 18 18 18 17 17 17 17 16 16 16 16 16 17 17 17 17 16 16 16 16 16 16 16 16 16 16 16 15 15 15
19 17 17 17 17 16 16 16 16 16 16 16 16 16 16 16 16 16 16 16 16 16 16 16 16 16 16 15 15 15 15 14
17 16 15 15 16 16 16 15 15 15 15 15 16 15 15 15 15 15 15 15 15 15 15 15 15 15 16 15 15 13 14 14
17 16 16 15 15 15 15 15 15 15 15 16 15 14 14 13 14 14 15 15 15 15 15 15 15 13 14 14 14 13 13 15
17 16 16 16 15 15 14 14 14 14 14 14 14 15 14 14 13 14 14 15 14 14 14 14 13 14 15 13 13 13 13 14
17 16 17 16 16 15 15 15 15 14 14 14 15 15 15 14 14 14 14 13 13 13 14 13 13 13 14 14 13 13 13 13
18 16 18 17 15 15 15 15 15 14 14 15 15 15 14 14 15 14 14 13 14 13 13 13 13 12 12 12 12 12 12 12
19 17 18 18 16 16 15 15 15 15 14 15 14 14 15 14 14 14 13 13 13 13 13 13 13 13 13 12 12 12 12 12
18 17 16 18 16 16 16 14 15 14 14 14 14 13 13 14 14 14 14 13 14 13 13 12 12 12 12 11 11 11 11 11
18 16 17 19 17 17 16 14 14 14 14 14 14 13 14 14 14 13 13 13 13 12 12 12 13 13 12 11 11 11 11 11
19 17 20 19 18 17 16 15 15 15 15 15 14 15 15 14 13 13 13 12 12 12 11 11 11 11 11 11 11 11 11 11
20 17 18 19 18 17 15 15 15 15 15 15 14 15 15 15 13 13 13 13 13 13 12 10 11 11 10 10 10 10 10 11
21 19 16 18 17 16 15 16 15 15 15 15 15 15 14 14 13 13 13 12 13 13 10 11 11 10 10 9 9 9 9 9
21 19 17 16 17 15 16 16 15 15 15 15 15 15 14 13 13 13 13 15 15 13 11 9 9 9 9 9 8 9 9 9
20 20 18 16 15 15 14 14 15 14 15 14 14 13 13 12 14 15 14 13 13 12 11 9 9 9 8 8 10 10 10 8
19 19 19 17 16 14 14 14 14 14 14 14 14 13 12 14 15 14 14 13 12 10 9 9 8 8 8 8 9 8 8 8
17 18 18 17 16 14 15 14 14 14 15 14 13 12 12 14 14 14 13 13 12 11 10 9 8 8 7 8 8 8 7 7
18 15 15 16 15 14 14 15 15 14 14 13 13 12 13 14 14 13 13 12 11 10 10 10 9 9 7 8 7 7 7 7
15 14 13 14 14 14 14 14 14 13 13 13 13 12 12 13 13 13 12 11 11 10 10 10 9 9 8 8 7 7 7 6
17 14 14 14 14 14 14 14 14 13 13 13 13 12 12 11 11 12 11 11 10 10 10 9 8 7 8 8 6 6 6 6

GFSFLT2_850_temp_234.txt.gz
Temp
19 19 18 18 17 17 17 17 17 17 17 17 17 17 17 17 16 16 17 17 16 16 16 16 17 17 16 16 16 16 16 14
19 18 18 17 17 17 17 17 17 16 16 16 16 16 16 16 16 16 16 16 16 16 16 16 16 16 16 16 16 16 16 15
19 18 18 17 17 16 16 16 16 16 16 16 16 16 16 16 16 16 16 16 16 16 15 15 15 15 15 15 15 16 15 15
19 17 17 16 15 16 16 16 16 16 16 15 15 15 15 15 15 15 15 16 16 15 15 15 15 15 15 14 14 14 13 14
17 18 16 15 15 15 16 16 16 15 15 15 15 14 14 15 14 14 15 15 15 15 14 14 14 14 14 14 14 14 14 14
18 17 16 15 16 16 16 15 15 15 15 15 15 15 14 15 14 15 15 15 15 14 14 13 13 14 14 14 14 13 13 13
18 17 17 15 15 15 16 15 15 15 15 15 15 15 15 15 15 15 14 14 14 14 14 14 14 13 13 13 13 13 13 13
19 18 19 17 15 15 16 15 16 16 15 15 15 15 15 14 15 14 14 14 14 14 13 13 14 13 13 13 13 13 13 12
20 18 19 19 18 15 15 16 15 16 15 15 15 15 15 14 14 14 14 14 14 13 13 13 13 13 13 13 12 13 13 13
21 19 18 19 19 17 15 16 15 15 15 15 15 15 15 15 14 14 14 13 13 13 12 12 12 12 12 12 12 11 11 11
21 19 18 19 19 17 17 16 14 14 15 15 15 15 15 14 14 14 14 13 13 13 14 13 12 11 11 11 11 11 12 11
22 20 18 19 19 17 15 16 15 14 14 14 15 15 15 14 15 14 14 13 13 13 13 12 11 10 10 10 9 10 10 10
22 21 20 19 18 17 17 16 15 15 15 15 15 15 14 15 15 14 13 14 13 13 13 13 13 12 10 9 10 9 9 10
22 21 20 20 18 17 14 14 14 15 16 15 15 15 15 14 14 14 13 13 14 14 14 13 12 11 10 9 9 9 10 10
22 21 20 20 18 17 15 14 15 14 15 15 15 15 14 14 14 13 14 14 14 14 14 13 12 11 10 9 9 10 10 10
22 21 20 20 19 18 17 14 14 14 14 15 15 15 14 14 13 14 15 13 13 12 13 13 12 11 9 9 9 8 8 8
21 21 20 20 19 18 17 16 14 14 14 14 14 14 14 14 13 14 14 14 13 13 13 12 11 9 9 10 9 9 8 8
19 19 19 19 18 17 16 16 16 14 14 14 14 14 13 12 13 14 14 13 13 13 12 12 11 10 9 9 9 9 8 7
19 19 17 17 17 15 16 15 15 14 14 14 13 13 13 13 13 14 13 13 13 12 12 11 11 10 10 9 9 8 8 8
20 19 18 16 15 14 14 15 14 14 14 13 13 13 13 13 13 13 13 13 12 12 11 10 10 9 9 8 8 8 8 7